• In Hungary
  • List of Countries
  • For 7 days
  • Water Temperature
  • Satellite Maps
  • Weather Map
  • News
  • Weather Widgets
  • user-avatar
    Login

    Hourly Weather Mankulam

    Today, 15 August, Wednesday

    Time Temperature Precipitation Wind Pressure Humidity
    00:00 +29°C° 0.3 mm 9 mps 751 mmHg 80%
    01:00 +28°C° 0.3 mm 9 mps 751 mmHg 80%
    02:00 +28°C° 0.3 mm 9 mps 751 mmHg 81%
    03:00 +28°C° 0.4 mm 9 mps 751 mmHg 80%
    04:00 +28°C° 0.4 mm 9 mps 751 mmHg 80%
    05:00 +28°C° 0.4 mm 8 mps 751 mmHg 79%
    06:00 +29°C° 0.3 mm 8 mps 751 mmHg 77%
    07:00 +29°C° 0.3 mm 8 mps 752 mmHg 76%
    08:00 +31°C° 0.3 mm 8 mps 752 mmHg 74%
    09:00 +31°C° 0.1 mm 8 mps 752 mmHg 72%
    10:00 +32°C° 0.1 mm 8 mps 752 mmHg 70%
    11:00 +32°C° 0.1 mm 9 mps 752 mmHg 68%
    12:00 +32°C° 0.2 mm 9 mps 752 mmHg 68%
    13:00 +32°C° 0.2 mm 9 mps 751 mmHg 69%
    14:00 +32°C° 0.2 mm 9 mps 751 mmHg 69%
    15:00 +31°C° 0.1 mm 9 mps 751 mmHg 71%
    16:00 +31°C° 0.1 mm 9 mps 751 mmHg 73%
    17:00 +29°C° 0.1 mm 9 mps 751 mmHg 74%
    18:00 +29°C° 0.2 mm 9 mps 751 mmHg 75%
    19:00 +29°C° 0.2 mm 9 mps 752 mmHg 76%
    20:00 +29°C° 0.2 mm 9 mps 752 mmHg 77%
    21:00 +29°C° 0.1 mm 9 mps 752 mmHg 77%
    22:00 +29°C° 0.1 mm 9 mps 752 mmHg 77%
    23:00 +29°C° 0.1 mm 9 mps 753 mmHg 77%

    Tomorrow, 16 August, Thursday

    Time Temperature Precipitation Wind Pressure Humidity
    00:00 +28°C° 0.1 mm 9 mps 752 mmHg 79%
    01:00 +28°C° 0.1 mm 9 mps 752 mmHg 80%
    02:00 +28°C° 0.1 mm 9 mps 751 mmHg 82%
    03:00 +28°C° 0.7 mm 8 mps 751 mmHg 83%
    04:00 +27°C° 0.7 mm 8 mps 752 mmHg 85%
    05:00 +27°C° 0.7 mm 8 mps 752 mmHg 87%
    06:00 +27°C° 0.6 mm 8 mps 752 mmHg 86%
    07:00 +28°C° 0.6 mm 8 mps 752 mmHg 84%
    08:00 +28°C° 0.6 mm 8 mps 753 mmHg 82%
    09:00 +29°C° 0 mm 8 mps 753 mmHg 76%
    10:00 +32°C° 0 mm 8 mps 753 mmHg 69%
    11:00 +33°C° 0 mm 9 mps 753 mmHg 63%
    12:00 +33°C° 0 mm 9 mps 752 mmHg 63%
    13:00 +33°C° 0 mm 8 mps 751 mmHg 62%
    14:00 +33°C° 0 mm 8 mps 750 mmHg 62%
    15:00 +32°C° 0.1 mm 8 mps 750 mmHg 64%
    16:00 +32°C° 0.1 mm 8 mps 750 mmHg 66%
    17:00 +31°C° 0.1 mm 8 mps 750 mmHg 68%
    18:00 +31°C° 0.2 mm 8 mps 750 mmHg 70%
    19:00 +29°C° 0.2 mm 8 mps 751 mmHg 72%
    20:00 +29°C° 0.2 mm 8 mps 751 mmHg 73%
    21:00 +29°C° 0 mm 7 mps 752 mmHg 74%
    22:00 +29°C° 0 mm 7 mps 752 mmHg 75%
    23:00 +29°C° 0 mm 7 mps 752 mmHg 76%

    Day after tomorrow, 17 August, Friday

    Time Temperature Precipitation Wind Pressure Humidity
    00:00 +29°C° 0 mm 7 mps 752 mmHg 77%
    01:00 +28°C° 0 mm 7 mps 751 mmHg 77%
    02:00 +28°C° 0 mm 7 mps 751 mmHg 77%
    03:00 +28°C° 0 mm 7 mps 751 mmHg 77%
    04:00 +28°C° 0 mm 7 mps 751 mmHg 77%
    05:00 +28°C° 0 mm 7 mps 751 mmHg 77%
    06:00 +29°C° 0 mm 7 mps 751 mmHg 74%
    07:00 +31°C° 0 mm 8 mps 751 mmHg 71%
    08:00 +31°C° 0 mm 8 mps 752 mmHg 68%
    09:00 +32°C° 0 mm 8 mps 752 mmHg 65%
    10:00 +33°C° 0 mm 8 mps 751 mmHg 63%
    11:00 +34°C° 0 mm 8 mps 751 mmHg 60%
    12:00 +34°C° 0 mm 8 mps 751 mmHg 59%
    13:00 +34°C° 0 mm 8 mps 750 mmHg 59%
    14:00 +34°C° 0 mm 8 mps 749 mmHg 58%
    15:00 +33°C° 0 mm 8 mps 749 mmHg 62%
    16:00 +32°C° 0 mm 8 mps 749 mmHg 65%
    17:00 +32°C° 0 mm 8 mps 749 mmHg 68%
    18:00 +31°C° 0 mm 8 mps 749 mmHg 71%
    19:00 +31°C° 0 mm 8 mps 750 mmHg 73%
    20:00 +29°C° 0 mm 8 mps 750 mmHg 76%
    21:00 +29°C° 0 mm 8 mps 750 mmHg 77%
    22:00 +29°C° 0 mm 8 mps 751 mmHg 77%
    23:00 +29°C° 0 mm 7 mps 751 mmHg 77%

    18 August, Saturday

    Time Temperature Precipitation Wind Pressure Humidity
    00:00 +29°C° 0.3 mm 7 mps 751 mmHg 78%
    01:00 +29°C° 0.3 mm 7 mps 750 mmHg 79%
    02:00 +28°C° 0.3 mm 6 mps 750 mmHg 79%
    03:00 +28°C° 0 mm 6 mps 750 mmHg 79%
    04:00 +28°C° 0 mm 6 mps 750 mmHg 80%
    05:00 +28°C° 0 mm 6 mps 750 mmHg 80%
    06:00 +29°C° 0 mm 6 mps 750 mmHg 76%
    07:00 +30°C° 0 mm 6 mps 750 mmHg 73%
    08:00 +32°C° 0 mm 6 mps 751 mmHg 69%
    09:00 +32°C° 0 mm 6 mps 751 mmHg 66%
    10:00 +33°C° 0 mm 6 mps 751 mmHg 62%
    11:00 +34°C° 0 mm 7 mps 751 mmHg 58%
    12:00 +34°C° 0 mm 6 mps 750 mmHg 58%
    13:00 +34°C° 0 mm 6 mps 749 mmHg 57%
    14:00 +34°C° 0 mm 6 mps 749 mmHg 57%
    15:00 +33°C° 0 mm 6 mps 749 mmHg 60%
    16:00 +33°C° 0 mm 6 mps 749 mmHg 64%
    17:00 +32°C° 0 mm 7 mps 749 mmHg 67%
    18:00 +30°C° 0.1 mm 6 mps 750 mmHg 69%
    19:00 +30°C° 0.1 mm 6 mps 750 mmHg 71%
    20:00 +30°C° 0.1 mm 6 mps 751 mmHg 73%
    21:00 +30°C° 0 mm 6 mps 751 mmHg 73%
    22:00 +29°C° 0 mm 6 mps 751 mmHg 73%
    23:00 +29°C° 0 mm 6 mps 751 mmHg 73%

    19 August, Sunday

    Time Temperature Precipitation Wind Pressure Humidity
    00:00 +29°C° 0.3 mm 6 mps 751 mmHg 76%
    01:00 +28°C° 0.3 mm 6 mps 750 mmHg 79%
    02:00 +28°C° 0.3 mm 5 mps 750 mmHg 82%
    03:00 +28°C° 0.1 mm 5 mps 750 mmHg 82%
    04:00 +28°C° 0.1 mm 5 mps 750 mmHg 81%
    05:00 +28°C° 0.1 mm 5 mps 750 mmHg 81%
    06:00 +29°C° 0 mm 5 mps 751 mmHg 77%
    07:00 +30°C° 0 mm 5 mps 752 mmHg 73%
    08:00 +32°C° 0 mm 5 mps 752 mmHg 69%
    09:00 +33°C° 0 mm 6 mps 752 mmHg 64%
    10:00 +34°C° 0 mm 6 mps 752 mmHg 60%
    11:00 +35°C° 0 mm 6 mps 751 mmHg 55%
    12:00 +35°C° 0 mm 6 mps 751 mmHg 55%
    13:00 +35°C° 0 mm 6 mps 750 mmHg 54%
    14:00 +35°C° 0 mm 6 mps 749 mmHg 53%
    15:00 +34°C° 0 mm 6 mps 749 mmHg 56%
    16:00 +33°C° 0 mm 6 mps 749 mmHg 59%
    17:00 +33°C° 0 mm 6 mps 750 mmHg 62%
    18:00 +32°C° 0 mm 6 mps 750 mmHg 66%
    19:00 +30°C° 0 mm 6 mps 751 mmHg 71%
    20:00 +29°C° 0 mm 6 mps 751 mmHg 75%
    21:00 +29°C° 0 mm 6 mps 751 mmHg 76%
    22:00 +29°C° 0 mm 6 mps 752 mmHg 76%
    23:00 +29°C° 0 mm 6 mps 752 mmHg 77%

    20 August, Monday

    Time Temperature Precipitation Wind Pressure Humidity
    00:00 +29°C° 0 mm 6 mps 751 mmHg 78%
    01:00 +29°C° 0 mm 5 mps 751 mmHg 79%
    02:00 +28°C° 0 mm 5 mps 750 mmHg 80%
    03:00 +28°C° 0 mm 5 mps 751 mmHg 81%
    04:00 +28°C° 0 mm 5 mps 751 mmHg 81%
    05:00 +28°C° 0 mm 4 mps 751 mmHg 82%
    06:00 +29°C° 0 mm 4 mps 752 mmHg 78%
    07:00 +30°C° 0 mm 4 mps 753 mmHg 73%
    08:00 +32°C° 0 mm 4 mps 753 mmHg 69%
    09:00 +33°C° 0 mm 4 mps 753 mmHg 64%
    10:00 +34°C° 0 mm 4 mps 753 mmHg 59%
    11:00 +35°C° 0 mm 4 mps 753 mmHg 54%
    12:00 +35°C° 0 mm 4 mps 752 mmHg 54%
    13:00 +35°C° 0 mm 4 mps 751 mmHg 53%
    14:00 +36°C° 0 mm 5 mps 750 mmHg 52%
    15:00 +35°C° 0 mm 5 mps 750 mmHg 54%
    16:00 +34°C° 0 mm 5 mps 750 mmHg 57%
    17:00 +33°C° 0 mm 5 mps 750 mmHg 59%
    18:00 +32°C° 0 mm 5 mps 751 mmHg 64%
    19:00 +30°C° 0 mm 5 mps 752 mmHg 69%
    20:00 +29°C° 0 mm 5 mps 752 mmHg 75%
    21:00 +29°C° 0 mm 6 mps 752 mmHg 76%
    22:00 +29°C° 0 mm 6 mps 752 mmHg 78%
    23:00 +29°C° 0 mm 6 mps 752 mmHg 79%
    Show more